Date,TemperatureHighF,TemperatureAvgF,TemperatureLowF,DewpointHighF,DewpointAvgF,DewpointLowF,HumidityHigh,HumidityAvg,HumidityLow,PressureMaxIn,PressureMinIn,WindSpeedMaxMPH,WindSpeedAvgMPH,GustSpeedMaxMPH,PrecipitationSumIn
2013-1-1,49,46,42,48,41,29,97,84,49,30.11,29.93,2,0,8,0.24
2013-1-2,48,44,40,48,40,36,98,86,64,30.18,29.91,2,0,7,0.15
2013-1-3,44,38,28,36,32,26,95,80,65,30.28,30.13,1,0,2,0.00
2013-1-4,50,36,26,29,25,22,96,69,36,30.35,30.22,4,1,7,0.00
2013-1-5,50,37,25,36,26,22,90,68,37,30.41,30.23,1,0,2,0.01
2013-1-6,54,43,37,39,37,33,94,80,52,30.23,30.04,1,0,3,0.03
2013-1-7,52,37,28,34,30,26,95,77,45,30.43,30.19,2,0,5,0.00
2013-1-8,57,41,27,43,36,26,97,83,58,30.48,30.37,2,0,5,0.00
2013-1-9,63,49,35,53,44,34,98,86,64,30.46,30.36,2,0,3,0.00
2013-1-10,61,51,43,49,41,33,98,74,35,30.52,30.40,2,0,4,0.00
2013-1-11,50,45,41,46,43,40,98,94,74,30.40,30.16,1,0,2,0.14
2013-1-12,68,54,46,62,53,45,99,95,81,30.18,30.09,2,0,5,0.01
2013-1-13,73,60,47,62,56,46,99,87,64,30.12,30.02,4,1,9,0.00
2013-1-14,63,61,56,62,60,55,98,95,88,30.11,30.04,2,0,5,0.27
2013-1-15,56,44,41,55,43,40,98,97,94,30.21,30.06,4,1,5,0.10
2013-1-16,50,45,40,49,44,39,98,98,97,30.07,29.96,1,0,3,0.22
2013-1-17,50,43,33,49,43,32,98,97,94,30.17,29.87,6,1,9,1.07
2013-1-18,44,34,28,35,30,27,99,88,54,30.54,30.15,1,0,3,0.50
2013-1-19,53,35,24,34,28,23,98,80,38,30.50,30.17,2,0,4,0.12
2013-1-20,62,43,30,38,32,28,96,70,31,30.16,30.01,5,1,8,0.00
2013-1-21,59,42,28,37,28,18,97,64,33,30.08,29.88,4,1,8,0.00
2013-1-22,40,32,24,19,9,-4,70,39,18,30.28,29.98,4,1,8,0.00
2013-1-23,42,28,18,23,16,8,85,62,34,30.38,30.05,4,1,7,0.00
2013-1-24,39,31,25,28,15,4,88,56,28,30.51,29.98,5,1,10,0.00
2013-1-25,27,24,20,25,17,6,94,76,44,30.53,30.13,2,0,4,0.00
2013-1-26,40,31,25,35,28,24,97,92,77,30.41,30.11,1,0,6,0.12
2013-1-27,42,33,23,30,27,21,92,78,59,30.60,30.40,2,0,4,0.02
2013-1-28,49,42,34,47,36,29,94,82,63,30.50,30.23,2,0,6,0.03
2013-1-29,73,56,39,58,50,38,98,83,59,30.25,30.03,4,1,9,0.00
2013-1-30,72,66,56,64,61,54,95,86,68,30.03,29.36,8,4,12,0.69
2013-1-31,56,43,31,54,30,21,93,62,38,29.99,29.43,7,3,17,0.03
2013-2-1,41,33,24,29,15,4,76,51,24,30.38,29.87,4,1,12,0.00
2013-2-2,43,31,18,36,19,11,93,62,33,30.41,30.04,7,1,13,0.04
2013-2-3,51,38,31,36,30,23,97,73,37,30.04,29.85,5,1,8,0.00
2013-2-4,49,37,25,29,25,21,91,65,39,30.15,30.00,3,0,5,0.00
2013-2-5,61,43,34,38,33,28,90,69,38,30.00,29.89,3,0,7,0.00
2013-2-6,62,43,30,37,28,20,97,64,20,30.26,29.97,4,0,6,0.00
2013-2-7,42,38,34,38,34,28,96,86,73,30.32,30.02,3,1,6,0.54
2013-2-8,58,43,36,47,37,28,97,81,51,30.08,29.84,3,1,7,0.16
2013-2-9,55,39,28,29,24,17,88,61,23,30.35,30.07,3,0,5,0.00
2013-2-10,54,40,26,40,27,22,91,65,30,30.48,30.19,2,0,4,0.10
2013-2-11,58,51,44,57,50,40,98,95,88,30.19,29.93,4,1,10,0.12
2013-2-12,58,50,39,51,37,25,97,65,29,30.10,29.90,3,0,9,0.00
2013-2-13,48,44,37,45,42,35,97,93,67,29.93,29.63,3,0,4,0.30
2013-2-14,52,39,29,36,32,27,98,78,43,30.07,29.85,3,0,5,0.01
2013-2-15,62,44,28,41,32,27,98,70,30,30.10,29.92,4,1,8,0.01
2013-2-16,43,35,30,35,31,19,96,84,61,29.97,29.83,2,0,7,0.11
2013-2-17,40,30,22,20,14,9,81,53,28,30.28,29.95,4,1,11,0.00
2013-2-18,54,35,18,27,21,15,94,62,29,30.41,30.22,3,1,7,0.00
2013-2-19,46,39,34,44,34,26,97,83,60,30.23,29.87,4,1,8,0.19
2013-2-20,54,39,25,28,19,9,88,50,17,30.14,29.99,4,1,10,0.00
2013-2-21,57,40,24,28,19,12,85,48,18,30.27,30.11,3,0,6,0.00
2013-2-22,43,35,33,35,33,27,97,92,53,30.33,30.13,2,0,3,0.39
2013-2-23,43,39,35,42,38,34,97,96,95,30.14,29.83,1,0,4,0.20
2013-2-24,63,48,35,44,37,28,98,70,28,30.03,29.81,3,1,11,0.00
2013-2-25,41,36,32,29,26,24,83,66,52,30.21,30.03,2,1,5,0.00
2013-2-26,42,38,32,42,35,26,98,91,67,30.14,29.59,3,1,8,0.81
2013-2-27,58,46,39,41,38,36,98,78,49,29.80,29.64,4,1,8,0.00
2013-2-28,48,40,31,38,30,26,94,69,44,29.87,29.69,5,1,8,0.00
2013-3-1,45,40,33,33,30,28,85,67,52,29.92,29.85,3,0,5,0.00
2013-3-2,45,38,30,30,27,22,87,66,50,29.93,29.82,3,0,4,0.00
2013-3-3,45,36,28,24,20,16,71,55,39,30.00,29.87,4,1,9,0.00
2013-3-4,53,36,24,30,18,12,80,53,20,30.13,29.99,4,1,7,0.00
2013-3-5,44,40,34,43,36,27,96,84,62,30.07,29.58,2,0,5,0.32
2013-3-6,49,40,34,41,31,26,96,71,48,30.09,29.56,5,2,9,0.13
2013-3-7,54,41,32,33,29,26,84,64,41,30.27,30.08,3,1,6,0.00
2013-3-8,57,42,28,29,26,22,88,57,26,30.31,30.19,3,1,9,0.00
2013-3-9,63,44,29,35,30,25,88,62,29,30.35,30.23,2,0,5,0.00
2013-3-10,68,49,32,38,34,30,94,62,28,30.31,30.18,3,0,5,0.00
2013-3-11,66,52,36,54,44,30,89,74,61,30.21,29.87,4,1,8,0.03
2013-3-12,67,59,56,58,55,50,96,88,54,29.88,29.72,4,2,7,0.94
2013-3-13,55,46,35,32,24,20,57,43,31,30.15,29.97,6,2,11,0.00
2013-3-14,53,39,29,25,20,16,69,48,25,30.26,30.14,4,1,8,0.00
2013-3-15,63,45,27,38,29,22,88,57,34,30.19,29.89,5,1,13,0.00
2013-3-16,77,61,48,57,46,38,90,59,34,29.89,29.64,6,2,11,0.02
2013-3-17,55,50,40,52,45,38,96,86,64,30.14,29.82,4,2,8,0.00
2013-3-18,40,39,38,39,38,36,97,96,94,30.17,29.84,2,1,5,0.31
2013-3-19,65,48,37,44,33,19,97,64,19,30.03,29.83,6,2,10,0.00
2013-3-20,56,46,38,29,18,13,60,34,19,30.11,29.79,4,1,12,0.00
2013-3-21,47,38,29,31,18,11,65,45,29,29.99,29.75,5,1,10,0.00
2013-3-22,52,36,21,26,18,13,83,49,25,30.09,29.98,4,1,7,0.00
2013-3-23,56,43,34,35,29,22,83,61,35,30.06,29.91,2,0,3,0.00
2013-3-24,41,38,35,38,36,31,96,91,79,29.93,29.55,4,1,8,0.59
2013-3-25,46,40,35,38,29,22,97,70,42,29.83,29.56,7,2,12,0.02
2013-3-26,47,40,33,31,27,26,78,61,45,30.15,29.84,3,1,7,0.00
2013-3-27,50,39,30,27,25,22,84,58,34,30.25,30.14,4,1,12,0.00
2013-3-28,56,42,30,29,25,23,78,55,28,30.31,30.18,4,1,9,0.00
2013-3-29,61,44,28,36,27,23,91,57,25,30.34,30.17,4,1,7,0.00
2013-3-30,66,52,36,41,36,28,90,58,31,30.23,30.06,3,1,8,0.00
2013-3-31,67,54,46,56,50,40,96,87,63,30.07,29.78,4,1,10,0.65
2013-4-1,72,58,48,52,45,37,98,68,33,29.94,29.81,5,1,7,0.03
2013-4-2,61,48,33,37,31,22,92,56,22,30.16,29.94,4,1,7,0.00
2013-4-3,60,47,34,34,25,18,71,46,21,30.29,30.13,3,1,7,0.00
2013-4-4,46,41,36,37,30,16,96,69,31,30.33,29.95,4,1,7,0.84
2013-4-5,66,49,36,47,40,35,97,76,38,30.03,29.90,2,1,6,0.00
2013-4-6,66,51,37,40,35,31,92,59,29,30.25,30.03,3,1,5,0.00
2013-4-7,71,56,38,47,42,36,94,63,37,30.25,30.09,4,1,7,0.00
2013-4-8,78,63,48,58,52,45,97,69,42,30.15,30.02,4,1,9,0.00
2013-4-9,84,69,50,59,55,49,97,64,37,30.17,30.03,4,1,8,0.00
2013-4-10,86,73,58,63,59,55,91,63,40,30.07,29.91,4,1,8,0.00
2013-4-11,80,69,58,65,60,56,93,74,51,29.95,29.74,4,1,10,0.00
2013-4-12,82,71,61,68,59,40,96,68,37,29.76,29.56,6,2,8,0.33
2013-4-13,75,60,44,47,42,37,90,56,25,30.00,29.77,4,1,7,0.00
2013-4-14,79,62,44,55,43,36,92,56,22,30.08,29.99,1,0,5,0.00
2013-4-15,67,61,56,59,57,54,96,86,70,30.18,29.98,2,0,4,0.12
2013-4-16,77,65,54,64,59,52,98,82,57,30.27,30.16,2,0,4,0.00
2013-4-17,83,68,55,64,59,54,97,77,46,30.21,30.08,3,0,3,0.00
2013-4-18,81,70,63,65,61,58,90,74,45,30.15,29.98,2,0,4,0.00
2013-4-19,76,68,59,69,64,55,96,88,75,29.98,29.69,5,1,6,0.72
2013-4-20,65,54,44,55,37,30,87,57,28,30.25,29.82,4,1,8,0.00
2013-4-21,62,50,39,44,38,34,92,66,40,30.48,30.25,3,1,6,0.00
2013-4-22,64,51,38,42,36,29,88,59,30,30.44,30.24,3,1,5,0.00
2013-4-23,70,56,47,54,48,41,93,75,54,30.27,30.09,3,0,6,0.00
2013-4-24,74,60,47,60,53,46,98,80,53,30.12,29.96,4,1,9,0.00
2013-4-25,71,59,48,58,43,31,84,58,23,30.27,30.00,2,1,7,0.00
2013-4-26,72,57,41,48,39,34,84,57,27,30.42,30.27,2,0,5,0.00
2013-4-27,66,59,53,53,49,42,89,70,57,30.34,30.24,1,0,3,0.00
2013-4-28,57,55,53,56,53,51,98,93,85,30.24,30.05,1,0,1,1.59
2013-4-29,72,61,56,64,58,55,98,91,67,30.05,29.95,1,0,4,0.39
2013-4-30,66,60,54,60,57,52,97,91,78,30.17,29.99,1,0,5,0.00
2013-5-1,62,58,53,59,56,52,97,92,83,30.30,30.16,2,0,4,0.01
2013-5-2,61,57,54,57,55,52,96,92,86,30.32,30.25,1,0,3,0.00
2013-5-3,68,58,49,56,51,43,96,79,57,30.25,30.14,2,0,4,0.01
2013-5-4,62,54,48,52,48,44,94,81,63,30.18,30.05,3,1,6,0.01
2013-5-5,56,52,49,55,50,46,97,91,85,30.08,29.93,2,1,6,0.15
2013-5-6,67,59,55,64,58,54,98,96,86,29.96,29.80,1,0,5,1.37
2013-5-7,72,59,54,60,54,49,98,87,47,29.93,29.83,2,0,6,0.27
2013-5-8,70,60,53,62,56,52,97,88,64,30.00,29.90,2,0,5,0.04
2013-5-9,81,65,50,62,56,49,98,77,42,30.06,29.97,2,0,5,0.01
2013-5-10,83,69,54,66,60,53,97,76,47,30.05,29.90,4,0,7,0.00
2013-5-11,80,71,62,66,62,59,95,76,53,29.93,29.76,4,1,7,0.08
2013-5-12,72,62,49,61,49,36,95,66,29,30.02,29.79,3,1,7,0.01
2013-5-13,67,54,41,43,38,31,93,59,27,30.17,30.02,3,0,8,0.00
2013-5-14,72,56,39,47,41,37,96,62,33,30.25,30.05,4,1,9,0.00
2013-5-15,88,70,52,66,56,45,83,63,40,30.05,29.88,4,1,6,0.00
2013-5-16,83,71,58,65,60,56,97,70,42,29.97,29.88,3,1,8,0.00
2013-5-17,87,73,60,67,63,58,97,74,45,30.06,29.96,1,0,3,0.00
2013-5-18,74,68,61,68,64,60,96,89,71,30.13,30.05,1,0,4,0.12
2013-5-19,75,68,64,70,66,62,97,93,81,30.12,30.02,1,0,3,0.16
2013-5-20,79,70,66,72,68,65,97,91,72,30.09,29.98,4,0,7,0.17
2013-5-21,86,74,67,75,70,66,97,86,64,30.03,29.91,3,0,5,0.00
2013-5-22,84,74,66,72,68,64,95,82,62,29.99,29.86,3,0,6,0.47
2013-5-23,77,69,63,70,65,61,97,89,77,29.93,29.79,2,0,6,0.61
2013-5-24,70,63,50,62,51,37,97,69,36,30.18,29.82,4,1,10,0.01
2013-5-25,75,58,43,52,42,36,93,61,29,30.28,30.13,3,1,9,0.00
2013-5-26,76,62,52,54,48,41,89,64,37,30.27,30.15,3,0,7,0.00
2013-5-27,81,66,51,60,55,50,97,71,41,30.27,30.13,3,0,7,0.00
2013-5-28,84,72,61,68,64,57,95,77,53,30.22,30.11,3,0,7,0.00
2013-5-29,85,73,60,69,64,58,96,75,48,30.21,30.13,2,0,6,0.00
2013-5-30,85,73,61,69,64,59,97,76,44,30.25,30.15,3,0,6,0.00
2013-5-31,86,74,62,71,66,61,97,79,53,30.20,30.08,2,0,6,0.00
2013-6-1,87,76,67,69,66,64,95,74,49,30.10,29.98,4,1,10,0.00
2013-6-2,84,74,67,71,68,64,96,81,58,30.02,29.87,3,1,9,0.18
2013-6-3,83,71,66,73,68,65,96,90,64,29.94,29.80,2,0,4,0.75
2013-6-4,76,69,64,68,65,62,97,88,74,30.07,29.92,1,0,3,0.01
2013-6-5,76,68,63,69,64,62,96,89,74,30.11,29.99,0,0,2,0.22
2013-6-6,73,69,65,72,68,63,97,96,92,30.00,29.78,1,0,4,1.03
2013-6-7,74,69,67,71,68,66,98,96,90,29.81,29.58,1,0,6,1.56
2013-6-8,84,72,63,71,67,62,98,86,56,30.07,29.80,3,0,5,0.26
2013-6-9,87,75,65,74,69,64,98,85,57,30.13,30.02,1,0,4,0.00
2013-6-10,83,73,70,76,71,68,96,91,68,30.06,29.84,5,1,8,0.43
2013-6-11,85,75,67,69,67,63,96,79,51,29.95,29.88,3,1,5,0.01
2013-6-12,91,77,63,78,70,62,97,80,58,29.96,29.84,3,0,7,0.00
2013-6-13,93,77,66,75,70,61,97,81,45,29.85,29.58,7,1,14,0.16
2013-6-14,80,70,59,65,59,56,95,70,46,30.00,29.72,2,0,6,0.00
2013-6-15,84,70,58,66,61,56,97,75,44,30.11,30.00,3,0,6,0.00
2013-6-16,86,75,64,71,66,62,93,77,54,30.10,29.98,3,1,8,0.00
2013-6-17,84,75,69,74,70,66,91,83,63,30.01,29.90,2,0,4,0.00
2013-6-18,82,72,68,74,69,67,97,90,72,29.94,29.76,4,0,5,0.24
2013-6-19,81,72,64,71,67,63,98,85,63,30.09,29.87,1,0,4,0.00
2013-6-20,82,71,64,70,65,62,97,83,55,30.22,30.10,1,0,5,0.00
2013-6-21,82,70,59,67,61,58,96,76,47,30.25,30.17,1,0,5,0.00
2013-6-22,84,72,62,72,67,59,96,85,64,30.21,30.09,1,0,2,0.00
2013-6-23,88,75,66,74,70,65,97,84,53,30.19,30.09,2,0,5,0.00
2013-6-24,88,76,68,77,71,67,97,86,63,30.18,30.06,2,0,4,0.01
2013-6-25,90,76,68,76,71,67,97,84,54,30.10,29.97,2,0,6,0.00
2013-6-26,90,75,67,76,70,66,97,85,53,30.01,29.86,2,0,6,0.61
2013-6-27,87,76,66,76,71,65,97,84,63,29.93,29.69,3,1,7,0.13
2013-6-28,90,77,69,77,71,68,97,84,56,29.73,29.56,3,1,6,0.43
2013-6-29,86,76,69,75,71,67,97,85,59,29.68,29.57,3,0,8,0.20
2013-6-30,86,75,69,76,71,68,96,89,66,29.82,29.67,2,0,5,0.22
2013-7-1,81,73,69,74,70,68,97,91,77,29.97,29.80,1,0,4,0.23
2013-7-2,77,73,71,74,71,69,96,93,87,30.14,29.96,2,0,6,0.57
2013-7-3,83,75,71,78,73,70,97,93,75,30.20,30.11,1,0,3,0.12
2013-7-4,86,76,72,77,73,71,97,91,67,30.23,30.14,2,0,9,0.31
2013-7-5,87,76,71,78,73,70,97,90,68,30.24,30.14,2,0,4,0.19
2013-7-6,89,77,70,76,72,69,97,87,59,30.23,30.08,2,0,5,0.02
2013-7-7,86,77,72,77,73,71,97,89,68,30.16,30.04,3,0,8,0.19
2013-7-8,87,77,71,76,72,70,97,87,59,30.16,30.07,2,0,7,0.12
2013-7-9,88,78,71,79,74,70,97,87,67,30.13,30.02,2,0,7,0.00
2013-7-10,87,78,71,77,73,70,96,86,66,30.08,29.90,3,0,9,0.13
2013-7-11,78,74,71,75,72,70,97,95,90,29.94,29.84,1,0,5,0.75
2013-7-12,78,72,68,71,69,66,97,91,78,30.01,29.85,1,0,4,0.00
2013-7-13,79,72,67,74,70,66,96,93,83,30.12,29.99,1,0,2,0.03
2013-7-14,87,76,71,76,72,70,97,88,63,30.27,30.12,1,0,5,0.12
2013-7-15,89,77,68,75,71,67,98,83,54,30.30,30.22,1,0,3,0.00
2013-7-16,92,79,68,78,72,67,98,80,49,30.27,30.17,1,0,4,0.00
2013-7-17,92,80,73,79,74,72,96,83,59,30.20,30.08,1,0,4,0.00
2013-7-18,92,80,72,80,75,71,97,84,58,30.12,30.00,2,0,3,0.00
2013-7-19,90,80,72,79,74,70,96,84,65,30.07,29.95,3,0,7,0.00
2013-7-20,87,78,72,78,74,71,95,87,69,29.99,29.89,2,0,4,0.00
2013-7-21,90,76,72,78,72,70,97,89,64,29.97,29.88,3,0,6,0.96
2013-7-22,86,77,70,77,73,70,97,88,69,29.93,29.80,3,0,4,0.00
2013-7-23,89,79,70,74,71,68,97,80,52,29.82,29.70,3,1,6,0.00
2013-7-24,90,78,67,76,70,66,97,80,49,29.84,29.71,2,0,6,0.00
2013-7-25,81,72,66,72,68,63,96,85,68,30.02,29.81,1,0,7,0.02
2013-7-26,84,73,64,72,67,63,97,82,59,30.09,30.00,1,0,5,0.00
2013-7-27,78,70,67,72,68,65,97,93,77,30.03,29.91,3,0,4,0.98
2013-7-28,86,75,69,73,70,68,97,85,58,29.98,29.90,3,0,5,0.09
2013-7-29,85,74,65,69,66,61,97,80,46,30.14,29.97,2,0,4,0.01
2013-7-30,85,72,62,72,66,60,96,82,53,30.21,30.12,1,0,3,0.00
2013-7-31,81,74,70,73,70,68,97,89,70,30.13,29.97,1,0,3,0.50
2013-8-1,84,76,70,75,72,68,97,88,68,29.97,29.84,2,0,4,0.00
2013-8-2,88,77,69,74,70,66,97,81,54,30.00,29.89,2,0,5,0.00
2013-8-3,89,77,70,79,72,68,97,85,59,29.99,29.89,3,0,6,0.00
2013-8-4,85,75,69,72,68,62,96,79,47,30.01,29.88,2,0,6,0.00
2013-8-5,83,73,63,71,67,62,96,83,59,30.06,29.97,3,0,4,0.00
2013-8-6,77,71,63,71,67,62,97,88,79,30.04,29.96,3,0,10,0.48
2013-8-7,84,75,69,73,70,67,96,86,61,30.07,30.00,2,0,5,0.00
2013-8-8,84,74,69,76,72,68,97,91,73,30.06,29.98,2,0,4,0.09
2013-8-9,89,77,72,78,73,71,97,89,65,30.03,29.96,3,0,7,0.21
2013-8-10,90,76,72,80,73,69,97,91,67,30.07,30.01,3,0,13,0.33
2013-8-11,91,78,70,79,73,69,98,86,59,30.09,29.99,2,0,4,0.00
2013-8-12,91,79,71,77,73,70,97,84,55,30.03,29.91,2,0,3,0.05
2013-8-13,88,75,70,77,72,69,97,91,67,29.93,29.77,4,0,7,0.13
2013-8-14,76,69,62,70,64,59,97,84,57,30.06,29.82,1,0,4,0.00
2013-8-15,75,66,59,61,59,57,96,80,56,30.15,30.06,1,0,1,0.00
2013-8-16,72,64,57,64,60,56,97,87,71,30.16,30.08,1,0,1,0.00
2013-8-17,66,63,59,65,62,58,98,96,94,30.18,30.12,0,0,4,1.55
2013-8-18,77,69,65,71,67,64,98,92,77,30.21,30.11,1,0,2,0.11
2013-8-19,74,69,65,72,67,64,98,95,87,30.17,30.08,1,0,1,0.28
2013-8-20,81,72,63,74,68,62,98,91,74,30.17,30.09,1,0,1,0.00
2013-8-21,84,75,70,77,72,69,98,92,77,30.20,30.08,2,0,2,0.06
2013-8-22,88,76,68,76,72,66,97,87,56,30.12,29.97,2,0,6,0.29
2013-8-23,86,74,66,75,69,63,98,85,60,30.06,29.92,1,0,5,0.01
2013-8-24,81,70,62,66,63,60,96,80,50,30.28,30.06,1,0,4,0.00
2013-8-25,79,68,58,67,61,57,98,83,52,30.38,30.27,1,0,3,0.00
2013-8-26,84,68,54,67,61,53,98,82,51,30.31,30.10,1,0,4,0.00
2013-8-27,88,74,61,76,68,60,98,84,55,30.12,29.95,2,0,3,0.00
2013-8-28,84,76,68,77,72,67,98,89,73,29.98,29.86,2,0,3,0.00
2013-8-29,88,78,72,76,73,70,95,83,65,29.98,29.83,2,0,3,0.00
2013-8-30,87,74,66,73,68,64,97,83,48,30.05,29.91,1,0,3,0.00
2013-8-31,87,73,65,76,70,64,98,89,68,29.94,29.84,2,0,5,0.09
2013-9-1,89,73,66,77,70,66,98,91,62,29.88,29.76,4,0,8,1.59
2013-9-2,87,75,67,76,71,66,98,87,59,29.88,29.78,2,0,5,0.00
2013-9-3,86,76,68,76,72,67,98,88,65,29.93,29.78,2,0,4,0.00
2013-9-4,86,72,62,72,66,61,97,84,56,30.07,29.93,1,0,4,0.00
2013-9-5,87,72,62,69,63,56,98,78,36,30.09,30.02,1,0,3,0.00
2013-9-6,82,69,61,66,61,58,97,78,50,30.18,30.08,1,0,3,0.00
2013-9-7,82,68,58,68,63,56,97,84,58,30.12,29.96,2,0,6,0.00
2013-9-8,86,72,62,73,67,61,98,84,55,29.97,29.90,1,0,4,0.00
2013-9-9,87,74,65,73,68,64,98,84,54,30.12,29.97,1,0,2,0.00
2013-9-10,90,75,66,74,69,65,98,84,52,30.21,30.11,2,0,4,0.00
2013-9-11,90,76,65,74,69,64,98,82,54,30.18,30.04,3,0,6,0.00
2013-9-12,88,76,67,75,70,66,97,82,59,30.04,29.80,2,0,4,0.00
2013-9-13,84,72,61,68,62,53,96,72,40,29.89,29.74,2,0,6,0.00
2013-9-14,76,63,55,60,54,51,95,73,50,30.12,29.89,1,0,4,0.00
2013-9-15,80,64,51,65,58,50,98,83,53,30.23,30.10,2,0,5,0.00
2013-9-16,84,72,62,68,64,59,97,79,51,30.17,30.03,3,0,6,0.00
2013-9-17,76,66,57,59,56,53,94,74,47,30.30,30.17,2,0,3,0.00
2013-9-18,74,61,52,58,54,50,96,80,54,30.31,30.17,2,0,3,0.00
2013-9-19,76,64,53,65,58,52,97,83,60,30.18,30.07,2,0,4,0.00
2013-9-20,82,70,64,70,66,62,95,88,68,30.07,29.92,1,0,4,0.00
2013-9-21,77,68,64,71,66,63,97,93,78,29.93,29.70,3,0,5,0.63
2013-9-22,76,66,57,63,59,56,97,81,50,29.89,29.70,2,0,7,0.11
2013-9-23,74,61,52,59,55,50,97,81,51,30.06,29.89,2,0,5,0.00
2013-9-24,77,63,53,63,58,52,97,85,56,30.09,29.93,2,0,5,0.00
2013-9-25,71,61,52,64,58,52,98,91,72,29.94,29.87,2,0,4,0.01
2013-9-26,76,63,54,62,57,52,98,85,54,30.03,29.88,2,0,5,0.00
2013-9-27,74,61,51,60,55,50,98,83,54,30.18,30.03,1,0,3,0.01
2013-9-28,69,58,51,58,53,50,98,85,58,30.26,30.17,1,0,3,0.00
2013-9-29,72,60,51,59,54,50,97,83,56,30.18,30.03,2,0,3,0.00
2013-9-30,77,60,50,61,55,49,98,84,50,30.10,29.99,1,0,4,0.00
2013-10-1,82,64,51,63,57,50,98,81,45,30.12,30.01,2,0,7,0.00
2013-10-2,84,66,54,65,59,53,98,80,43,30.13,30.03,2,0,4,0.00
2013-10-3,84,68,58,68,62,57,98,82,49,30.11,30.03,3,0,6,0.01
2013-10-4,86,69,57,68,62,56,98,82,47,30.13,30.03,2,0,3,0.00
2013-10-5,88,71,59,70,64,58,98,81,48,30.11,30.01,2,0,4,0.00
2013-10-6,85,69,59,68,63,58,98,83,53,30.04,29.89,3,0,7,0.00
2013-10-7,73,69,61,71,66,54,97,91,72,29.99,29.80,3,0,5,0.53
2013-10-8,67,59,56,54,50,47,83,72,55,30.21,29.99,3,0,7,0.00
2013-10-9,70,59,52,56,51,47,88,74,52,30.21,30.11,2,0,4,0.00
2013-10-10,66,59,54,62,56,50,96,90,81,30.11,29.95,1,0,5,0.06
2013-10-11,71,64,58,64,61,57,96,88,71,29.97,29.90,1,0,6,0.01
2013-10-12,72,64,55,64,61,54,98,91,74,30.08,29.95,1,0,5,0.00
2013-10-13,67,63,61,64,61,59,97,94,89,30.20,30.07,1,0,5,0.04
2013-10-14,64,61,58,61,59,56,97,94,89,30.24,30.16,1,0,2,0.04
2013-10-15,73,61,52,58,55,51,98,82,46,30.20,30.05,1,0,4,0.00
2013-10-16,76,65,60,62,59,56,94,82,58,30.07,29.93,2,0,6,0.00
2013-10-17,70,64,60,64,62,59,98,93,76,29.95,29.82,1,0,3,0.04
2013-10-18,70,60,52,64,54,48,97,82,53,30.03,29.87,1,0,5,0.00
2013-10-19,62,57,52,60,56,51,97,96,92,29.97,29.82,1,0,4,0.05
2013-10-20,66,51,42,51,44,38,98,79,37,30.11,29.91,1,0,3,0.00
2013-10-21,70,51,38,52,45,37,98,83,47,30.16,30.00,3,0,3,0.00
2013-10-22,68,58,51,58,54,50,97,87,59,30.00,29.79,2,0,3,0.00
2013-10-23,65,57,44,58,46,33,97,70,35,30.01,29.69,5,1,10,0.00
2013-10-24,58,46,32,39,34,31,95,67,43,30.18,30.00,3,1,8,0.00
2013-10-25,55,44,33,37,33,29,94,68,38,30.38,30.18,3,0,5,0.00
2013-10-26,59,43,27,38,31,26,97,68,35,30.37,30.08,4,1,10,0.00
2013-10-27,69,53,39,46,41,37,96,67,37,30.13,30.03,3,0,7,0.00
2013-10-28,68,54,43,54,49,42,97,83,55,30.26,30.11,1,0,2,0.00
2013-10-29,73,58,50,57,53,49,96,83,54,30.33,30.23,1,0,3,0.00
2013-10-30,77,60,50,61,54,49,98,83,51,30.27,30.14,3,0,6,0.00
2013-10-31,70,63,54,63,58,53,97,84,67,30.17,29.87,3,0,6,0.00
2013-11-1,70,65,60,65,63,58,96,91,81,29.88,29.64,3,1,7,0.54
2013-11-2,69,56,47,59,49,40,98,80,37,29.95,29.68,4,0,6,0.01
2013-11-3,63,48,39,42,38,35,95,72,37,30.36,29.95,3,0,5,0.00
2013-11-4,57,44,36,37,34,32,92,70,40,30.55,30.36,2,0,3,0.00
2013-11-5,56,44,35,46,36,31,88,75,63,30.57,30.45,2,0,4,0.00
2013-11-6,72,56,43,55,50,42,97,82,55,30.41,30.11,1,0,2,0.00
2013-11-7,66,54,42,58,47,34,98,80,49,30.12,29.94,2,0,5,0.00
2013-11-8,58,42,30,35,30,22,97,66,27,30.33,30.13,3,0,7,0.00
2013-11-9,58,42,28,36,30,27,96,67,32,30.38,30.19,3,0,5,0.00
2013-11-10,71,50,33,40,35,32,97,64,25,30.21,30.08,4,1,12,0.00
2013-11-12,60,41,30,40,33,23,96,78,38,30.45,30.05,3,0,9,0.12
2013-11-13,47,32,23,27,22,18,93,69,31,30.56,30.45,3,0,7,0.00
2013-11-14,59,37,22,30,24,20,96,68,24,30.49,30.34,3,0,8,0.00
2013-11-15,59,44,27,49,36,25,95,75,43,30.36,30.22,1,0,3,0.01
2013-11-16,62,53,50,57,52,48,98,94,83,30.27,30.20,0,0,0,0.08
2013-11-17,67,59,53,63,58,52,98,95,80,30.22,29.87,1,0,3,0.14
2013-11-18,75,62,49,65,51,33,97,69,34,29.97,29.80,4,1,7,0.13
2013-11-19,55,46,36,33,30,26,83,56,33,30.30,29.97,2,0,5,0.00
2013-11-20,53,42,34,36,31,28,81,64,46,30.47,30.30,2,0,7,0.00
2013-11-21,58,48,42,45,40,35,83,74,61,30.51,30.39,2,0,3,0.00
2013-11-22,68,57,48,59,52,44,93,82,72,30.40,30.08,4,1,7,0.00
2013-11-23,60,53,40,58,41,19,97,67,30,30.19,30.03,2,0,6,0.00
2013-11-24,40,32,25,22,11,3,67,42,23,30.55,30.19,3,1,7,0.00
2013-11-25,42,31,18,21,13,7,83,52,24,30.59,30.38,2,0,4,0.00
2013-11-26,53,39,32,53,34,14,98,85,37,30.38,29.60,2,0,6,1.86
2013-11-27,45,38,28,44,33,16,98,82,59,30.20,29.51,3,1,10,0.40
2013-11-28,45,30,20,26,20,15,93,69,35,30.49,30.19,2,0,8,0.00
2013-11-29,50,34,23,28,25,21,96,74,37,30.64,30.49,2,0,5,0.00
2013-11-30,47,33,26,29,25,22,92,75,46,30.67,30.39,2,0,4,0.00
2013-12-1,59,38,24,36,29,23,97,76,37,30.39,30.04,2,0,4,0.00
2013-12-2,59,43,29,45,37,27,98,82,54,30.04,29.83,2,0,4,0.00
2013-12-3,57,46,33,50,43,32,98,89,75,29.98,29.87,1,0,4,0.00
2013-12-4,60,54,48,57,53,46,97,95,90,30.08,29.96,0,0,2,0.06
2013-12-5,64,61,57,63,60,56,98,97,95,30.10,30.00,2,0,4,0.09
2013-12-6,77,69,64,64,63,62,97,84,63,30.03,29.93,6,2,12,0.01
2013-12-7,69,50,42,64,46,36,96,88,79,30.44,29.94,3,1,8,0.34
2013-12-8,42,35,32,37,32,28,97,88,66,30.45,30.29,3,1,6,0.16
2013-12-9,44,39,33,43,38,32,98,98,97,30.29,30.07,1,0,3,0.38
2013-12-10,50,41,27,46,39,26,98,91,66,30.32,29.92,1,0,6,0.21
2013-12-11,49,33,22,32,26,21,98,77,38,30.46,30.30,4,0,7,0.01
2013-12-12,45,34,25,27,22,14,93,64,28,30.43,30.30,3,0,5,0.00
2013-12-13,51,34,22,33,24,19,92,72,32,30.40,30.28,3,0,5,0.00
2013-12-14,46,39,37,42,36,31,97,87,61,30.31,29.78,2,0,3,0.78
2013-12-15,52,40,29,42,35,27,98,83,50,30.09,29.74,4,0,8,0.01
2013-12-16,57,39,26,36,31,25,97,77,39,30.18,30.07,3,0,7,0.00
2013-12-17,62,45,30,40,34,28,96,69,38,30.12,29.87,3,1,7,0.00
2013-12-18,50,38,28,32,23,17,85,58,28,30.29,30.04,3,1,8,0.00
2013-12-19,63,44,26,30,26,22,93,56,24,30.33,30.22,4,1,8,0.00
2013-12-20,64,51,36,53,42,29,89,71,50,30.24,30.12,5,1,8,0.00
2013-12-21,72,59,44,64,54,43,98,87,69,30.14,30.00,5,1,7,0.00
2013-12-22,72,67,61,68,64,60,97,91,80,30.06,29.96,5,2,12,0.73
2013-12-23,64,57,43,63,55,34,97,93,69,30.17,29.97,3,1,5,1.16
2013-12-24,46,38,28,35,26,16,77,62,42,30.47,30.14,2,1,6,0.01
2013-12-25,41,28,21,21,16,11,88,62,29,30.57,30.41,2,0,4,0.00
2013-12-26,53,34,22,30,24,19,90,71,36,30.42,30.27,2,0,5,0.00
2013-12-27,53,34,25,29,24,20,91,71,28,30.49,30.38,1,0,4,0.00
2013-12-28,56,40,24,40,29,22,96,71,33,30.42,30.15,2,0,4,0.00
2013-12-29,56,45,39,50,43,38,97,91,77,30.15,29.73,4,0,6,0.92
2013-12-30,52,42,33,44,38,32,98,86,66,30.14,29.93,2,0,3,0.00
2013-12-31,50,40,30,37,30,23,97,70,35,30.36,30.12,4,1,7,0.01
2014-1-1,50,37,29,32,28,25,93,74,38,30.41,30.16,2,0,4,0.00
2014-1-2,45,39,34,43,37,31,97,90,79,30.16,29.63,1,0,4,0.33